Reading, PA

11:14 AM EST on December 08, 2019 (GMT -0500)
Reading Regional-Spaatz

Weather History for KRDG - November, 2019

Change the Weather History Date:

Monday, November 11, 2019

  Actual Average Record
Temperature  
Mean Temperature 48 °F 46 °F  
Max Temperature 64 °F 56 °F 74 °F (1985)
Min Temperature 32 °F 36 °F 18 °F (1973)
Degree Days  
Heating Degree Days 17 19  
Month to date heating degree days 244 194  
Since 1 July heating degree days 483 632  
Cooling Degree Days 0 0  
Month to date cooling degree days 0 0  
Year to date cooling degree days 1239 896  
Moisture  
Dew Point 40 °F    
Average Humidity 74    
Maximum Humidity 100    
Minimum Humidity 46    
Precipitation  
Precipitation 0.00 in 0.09 in 1.64 in (1990)
Month to date precipitation 0.28 1.21  
Year to date precipitation 49.04 37.73  
Sea Level Pressure  
Sea Level Pressure 29.99 in    
Wind  
Wind Speed 2 mph ()    
Max Wind Speed 14 mph    
Max Gust Speed 18 mph    
Visibility 8.7 miles    
Events      
T = Trace of Precipitation, MM = Missing Value Source: Averaged Metar Reports

Daily Weather History Graph

Daily Weather History Graph

Search for Another Location

Airport or City:

Astronomy

Nov. 11, 2019 Rise Set
Actual Time 6:44 AM EST 4:50 PM EST
Civil Twilight 6:15 AM EST 5:19 PM EST
Nautical Twilight 5:43 AM EST 5:51 PM EST
Astronomical Twilight 5:11 AM EST 6:23 PM EST
Moon 4:44 PM EST (11/11) 5:33 AM EST (11/11)
Length of Visible Light 11h 03m
Length of Day
10h 05m
Waxing Gibbous, 99% of the Moon is Illuminated
Nov 11
Waxing Gibbous
Nov 12
Full
Nov 19
Last Quarter
Nov 26
New
Dec 4
First Quarter

Hourly Weather History & Observations

Time (EST) Temp. Windchill Dew Point Humidity Pressure Visibility Wind Dir Wind Speed Gust Speed Precip Events Conditions
1:54 AM 37.9 °F 35.5 °F 35.1 °F 89% 30.06 in 10.0 mi NNW 3.5 mph - N/A   Clear
2:54 AM 37.0 °F - 35.1 °F 93% 30.06 in 10.0 mi Calm Calm - N/A   Clear
3:54 AM 35.1 °F - 33.1 °F 92% 30.06 in 10.0 mi Calm Calm - N/A   Clear
4:54 AM 35.1 °F - 34.0 °F 96% 30.07 in 8.0 mi Calm Calm - N/A   Clear
5:54 AM 35.1 °F - 34.0 °F 96% 30.08 in 10.0 mi Calm Calm - N/A   Clear
6:54 AM 34.0 °F 31.0 °F 34.0 °F 100% 30.09 in 7.0 mi SW 3.5 mph - N/A   Clear
7:11 AM 33.1 °F - 33.1 °F 100% 30.07 in 1.8 mi Calm Calm - N/A   Clear
7:18 AM 33.1 °F - 33.1 °F 100% 30.07 in 6.0 mi Calm Calm - N/A   Clear
7:54 AM 37.0 °F - 36.0 °F 96% 30.10 in 6.0 mi Calm Calm - N/A   Clear
8:54 AM 41.0 °F - 37.0 °F 86% 30.11 in 7.0 mi Calm Calm - N/A   Clear
9:54 AM 46.0 °F - 39.0 °F 76% 30.09 in 7.0 mi Calm Calm - N/A   Clear
10:54 AM 52.0 °F - 42.1 °F 69% 30.08 in 6.0 mi Calm Calm - N/A   Clear
11:54 AM 55.9 °F - 41.0 °F 57% 30.06 in 10.0 mi Calm Calm - N/A   Clear
12:54 PM 57.9 °F - 42.1 °F 56% 30.01 in 8.0 mi Calm Calm - N/A   Clear
1:54 PM 62.1 °F - 42.1 °F 48% 29.99 in 10.0 mi Calm Calm - N/A   Clear
2:54 PM 63.0 °F - 42.1 °F 46% 29.96 in 10.0 mi SSE 5.8 mph - N/A   Clear
3:54 PM 62.1 °F - 43.0 °F 50% 29.93 in 10.0 mi SSE 4.6 mph - N/A   Clear
4:54 PM 60.1 °F - 43.0 °F 53% 29.91 in 10.0 mi SSE 6.9 mph - N/A   Clear
5:54 PM 60.1 °F - 42.1 °F 51% 29.87 in 10.0 mi SSE 6.9 mph - N/A   Clear
6:54 PM 57.9 °F - 43.0 °F 58% 29.87 in 10.0 mi SSE 8.1 mph - N/A   Clear
7:54 PM 55.9 °F - 44.1 °F 64% 29.87 in 10.0 mi South 6.9 mph - N/A   Clear
8:54 PM 55.0 °F - 44.1 °F 67% 29.86 in 10.0 mi South 8.1 mph - N/A   Clear
9:54 PM 55.9 °F - 45.0 °F 67% 29.81 in 10.0 mi South 10.4 mph - N/A   Clear
10:54 PM 57.0 °F - 46.0 °F 67% 29.79 in 10.0 mi South 10.4 mph - N/A   Clear
11:54 PM 55.9 °F - 46.9 °F 72% 29.76 in 10.0 mi SSW 11.5 mph - N/A   Clear